STARLINK-1417, 45693

Orbit data source: Space-Track

STARLINK-1417, 45693 is a payload satellite owned by SpaceX/Seattle (US) in LEO that was launched on Thu, 04 Jun 2020 UTC via an FALCON 9 launch vehicle from the Air Force Eastern Test Range (AFETR). Payload-class satellites include a variety of spacecraft equipped with specific instruments for various scientific and technological missions. These include communications satellites like Starlink; space stations such as the ISS; scientific satellites like the Hubble; Earth observation satellites from companies like Planet Labs, Umbra, and HawkEye 360; GPS; miniature CubeSats for education and research; and military/defense satellites.

Loading next visibility...
Identifier
45693, 2020-035AN
Orbit
LEO
Last TLE update
1 day ago
Origin
Manufacturer
SpaceX/Seattle
Mission
Operational Commercial Communications
Bus & Motor
STARLINK, Unknown motor
Mass
260 kg wet, ~248 kg dry
Launch date (UTC)
2020-06-04 (5 years ago)
Launch vehicle
FALCON 9
Launch site
Air Force Eastern Test Range (AFETR)
Object type
Payload
Rocket body
Debris
Shape & HBR
Box + 1 Pan, 8.86 m
Radar Cross Section
13.562 m², Large (>1 m²)

Expand to show TLE details & history

TLE from 1 day ago
0 STARLINK-1417
1 45693U 20035AN  25127.89086483 -.00000637  00000-0 -23865-4 0  9996
2 45693  53.0562 349.4002 0001442  93.6873 266.4281 15.06398998272771
Epoch: 2025-05-07T21:22Z
Definitive object data (Epoch: 2025-05-07T21:22:50.721Z)
Latitude
-0.00001°
Longitude
162.71964°
Altitude
548.156 km
Speed
7.589 km/s
True Right ascension
23h 17m 36s
True Declination
0° 00' 00"
Sunlit
Object was in daylight at TLE epoch
Visualization TLE readout
Latitude
43.27609°
Longitude
-158.82066°
Altitude
550.737 km
Speed
7.592 km/s
Apparent Right ascension
02h 31m 55s
Apparent Declination
3° 50' 11"
Sunlit
Object is in daylight
Visualization observer readout
Local Sidereal Time
15:13:41
Azimuth
14.872° NNE
Elevation
-45.207°
Doppler factor
1
Orbital elements
Apogee altitude
548.484 km
Perigee altitude
546.486 km
Semi-major axis
6,925.622 km
Eccentricity
0.0001442
Inclination
53.0562°
RAAN
349.4002°
Arg. of periapsis
93.6873°
True anomaly
266.41161°
Mean anomaly
266.4281°
Eccentric anomaly
266.41985°
Mean motion
3.76578 °/min
BSTAR
-0.000023865
Orbital period
95.6 mins
Loading maneuver chart data...
Loading SW <> Apogee altitude chart data...

STARLINK-1417 Visibility forecast

Observer location: undefined°, undefined°

Span
Click to sort rows by Start time (UTC) header in descending order
Start Az.
Max El. time (UTC)
Max El. Az.
Max El.
End time (UTC)
End Az.
7 mins2025-05-09 16:31:45.200Z204.498° SW2025-05-09 16:34:45.200Z155.566° SSE33.898°2025-05-09 16:38:45.200Z63.356° ENE
5 mins2025-05-09 18:12:45.200Z283.109° WNW2025-05-09 18:14:45.200Z328.356° NNW27.114°2025-05-09 18:17:45.200Z28.851° NE
6 mins2025-05-09 23:13:45.200Z324.453° NNW2025-05-09 23:16:45.200Z38.56° NE36.19°2025-05-09 23:19:45.200Z104.812° ESE
5 mins2025-05-10 00:53:45.200Z274.134° WNW2025-05-10 00:55:45.200Z235.968° WSW22.584°2025-05-10 00:58:45.200Z180.429° SSW
|